Regional Weather Roundup
Issued by NWS

Home | Current Version | Previous Version | Text Only | Print | Product List | Glossary Off
Versions: 1 2 3 4 5 6 7 8 9 10 11 12 13 14 15 16 17 18 19 20 21 22 23 24 25 26 27 28 29 30 31 32 33 34 35 36 37 38 39 40 41 42 43 44 45 46 47 48 49 50

000
ASUS43 KOAX 192002
RWRNE

WEATHER ROUNDUP FOR NEBRASKA
NATIONAL WEATHER SERVICE OMAHA NE
300 PM CDT THU APR 19 2018

NOTES: SATELLITE DATA IS BEING USED TO AUGMENT CLOUD COVER ABOVE
       12000 FEET.
       "FAIR" INDICATES FEW OR NO CLOUDS BELOW 12,000 FEET WITH NO
       SIGNIFICANT WEATHER AND/OR OBSTRUCTIONS TO VISIBILITY.


NEZ001>004-019>022-054>056-192100-
NEBRASKA PANHANDLE

CITY           SKY/WX    TMP DP  RH WIND       PRES   REMARKS
SCOTTSBLUFF    MOSUNNY   62  29  28 S23G32    30.18F
ALLIANCE       MOSUNNY   58  32  37 SE23G33   30.22F
CHADRON        MOSUNNY   61  31  32 S21G28    30.21F
GORDON         FAIR      56  30  36 SE16      30.26F
KIMBALL        PTSUNNY   59  24  25 SE26G36   30.18F
SIDNEY         PTSUNNY   61  29  29 S25G32    30.22F
$$

NEZ057>060-069>072-079>082-192100-
SOUTHWEST NEBRASKA

CITY           SKY/WX    TMP DP  RH WIND       PRES   REMARKS
NORTH PLATTE   MOSUNNY   59  32  36 SE16G25   30.32F
IMPERIAL       SUNNY     59  28  30 E20G29    30.28F
LEXINGTON      SUNNY     55  31  38 E8G17     30.37F
MCCOOK         MOSUNNY   59  29  31 E15G26    30.32F
OGALLALA       MOSUNNY   59  28  30 SE15G23   30.27F
$$

NEZ005>010-023>029-035>040-094-192100-
NORTH CENTRAL NEBRASKA

CITY           SKY/WX    TMP DP  RH WIND       PRES   REMARKS
VALENTINE      PTSUNNY   52  29  41 SE15G23   30.35F
AINSWORTH      MOSUNNY   51  31  47 SE10      30.37F
BROKEN BOW     SUNNY     53  31  42 SE12      30.38F
O`NEILL        SUNNY     51  24  34 E3        30.43F
ORD            SUNNY     53  22  29 E12G18    30.40F
THEDFORD       PTSUNNY   54  30  39 S8G17     30.34F
$$

NEZ041-046>049-061>064-073>077-083>087-192100-
SOUTH CENTRAL NEBRASKA

CITY           SKY/WX    TMP DP  RH WIND       PRES   REMARKS
GRAND ISLAND   SUNNY     52  29  41 SE6       30.41F
AURORA         SUNNY     54  26  33 CALM      30.41F
HASTINGS       SUNNY     53  28  38 VRB5      30.41F
HEBRON         SUNNY     56  29  35 S3        30.42F
HOLDREGE       SUNNY     54  31  41 E10G16    30.37F
KEARNEY        SUNNY     53  27  36 E9        30.40F
YORK             N/A     54  27  35 NE5       30.42F
$$

NEZ011>018-030>034-042>045-192100-
NORTHEAST NEBRASKA

CITY           SKY/WX    TMP DP  RH WIND       PRES   REMARKS
NORFOLK        SUNNY     53  24  32 NE3       30.41F
ALBION         SUNNY     54  27  34 E8        30.42F
BLAIR          SUNNY     54  31  41 N3        30.44F
COLUMBUS       SUNNY     55  22  27 NE9       30.43F
FREMONT        SUNNY     55  27  34 E5        30.45F
TEKAMAH        SUNNY     53  33  46 VRB5      30.45F
WAYNE          SUNNY     52  23  32 E6        30.44F
$$

NEZ050>053-065>068-078-088>093-192100-
SOUTHEAST NEBRASKA

CITY           SKY/WX    TMP DP  RH WIND       PRES   REMARKS
LINCOLN        SUNNY     57  26  30 NE5       30.44F
OMAHA EPPLEY   MOSUNNY   56  27  32 VRB6      30.45F
BEATRICE       SUNNY     56  31  39 CALM      30.43F
FALLS CITY     SUNNY     57  29  34 W5        30.44F
NEBRASKA CITY  SUNNY     55  31  40 N5        30.44F
PLATTSMOUTH    SUNNY     54  28  36 NW5       30.44F
$$

NEZ044-045-051>053-067-192100-
OMAHA AREA

CITY           SKY/WX    TMP DP  RH WIND       PRES   REMARKS
OMAHA EPPLEY   MOSUNNY   56  27  32 VRB6      30.45F
BLAIR          SUNNY     54  31  41 N3        30.44F
FREMONT        SUNNY     55  27  34 E5        30.45F
OFFUTT AFB     SUNNY     55  29  36 NE7       30.44F
PLATTSMOUTH    SUNNY     54  28  36 NW5       30.44F
WAHOO          FAIR      56  19  24 E5        30.44F
$$




USA.gov is the U.S. government's official web portal to all federal, state and local government web resources and services.